[[{"header":{"parameterUnit":"m.s-1","parameterCategory":1,"la1":30.2991,"la2":30.254,"lo1":-89.0895,"lo2":-89.0444,"dy":0.0017,"dx":0.0017,"nx":28,"ny":28,"refTime":"2025-04-30T21:00:00:Z","depth":0,"parameterNumber":2,"parameterNumberName":"U-component_of_WINDS"},"data":[0,0,0,0,0,0,0,0,0,0,0,0,0,0,0,0,0,0,0,0,0,0,0,0,0,0,0,0,0,0,0,0,0,0,0,0,0,0,0,0,0,0,0,0,0,0,0,0,0,0,0,0,0,0,0,0,0,0,-1.903,-1.903,0,-1.896,-1.8959,-1.8959,-1.8919,-1.8919,-1.8919,-1.8918,-1.8845,-1.8844,-1.8842,0,0,0,0,0,0,0,0,0,0,0,0,0,-1.913,-1.9129,-1.903,-1.903,-1.9029,-1.896,-1.8959,-1.8958,-1.8919,-1.8919,-1.8918,-1.8918,-1.8846,-1.8844,-1.8842,0,0,0,0,0,0,0,0,0,0,0,0,0,-1.9076,-1.9128,-1.9031,-1.9001,-1.8997,-1.896,-1.8959,-1.8958,-1.8919,-1.8919,-1.8918,-1.8918,-1.8847,-1.8844,-1.8841,-1.8828,0,0,-1.8833,-1.8832,0,0,0,0,0,0,0,0,-1.9079,-1.9073,-1.9006,-1.9003,-1.8999,-1.8948,-1.8968,-1.8915,-1.8919,-1.8949,-1.8918,-1.8918,-1.888,-1.8874,-1.8861,-1.8825,-1.8822,-1.8833,-1.8831,-1.883,-1.8829,0,0,0,0,0,0,0,-1.9083,-1.9075,-1.9003,-1.9005,-1.9001,-1.8991,-1.8983,-1.8957,-1.8916,-1.8946,-1.8943,-1.8935,-1.8878,-1.8864,-1.8859,-1.8821,-1.8833,-1.883,-1.8829,-1.8828,-1.8771,-1.8771,0,0,0,0,0,0,-1.9092,-1.9079,-1.9005,-1.9,-1.9039,-1.8989,-1.898,-1.8965,-1.8916,-1.8909,-1.8935,-1.8934,-1.8869,-1.8863,-1.8857,-1.8838,-1.883,-1.8827,-1.8826,-1.877,-1.8771,-1.8771,0,0,0,0,0,0,-1.9094,-1.9085,-1.9008,-1.9039,-1.9028,-1.8988,-1.897,-1.8963,-1.895,-1.8908,-1.8901,-1.8929,-1.8868,-1.886,-1.8836,-1.8835,-1.8826,-1.8824,-1.877,-1.877,-1.8771,-1.8801,0,0,0,0,0,0,-1.9097,-1.9087,-1.9081,-1.9039,-1.9027,-1.8988,-1.897,-1.8962,-1.8945,-1.8942,-1.89,-1.8893,-1.8868,-1.884,-1.8833,-1.8831,-1.8821,-1.877,-1.877,-1.8771,-1.88,-1.8802,-1.8805,0,0,0,0,0,-1.9101,-1.9092,-1.9081,-1.9072,-1.9019,-1.8988,-1.8981,-1.8952,-1.8945,-1.8939,-1.8913,-1.8895,-1.8837,-1.8838,-1.883,-1.8827,-1.877,-1.877,-1.8771,-1.8799,-1.8802,-1.8804,0,0,0,0,0,0,-1.9135,-1.9086,-1.9073,-1.9051,-1.9024,-1.8982,-1.8973,-1.8956,-1.893,-1.8928,-1.8893,-1.8884,-1.8863,-1.8843,-1.8845,-1.8812,-1.8801,-1.88,-1.8826,-1.8828,-1.883,-1.8835,-1.8819,0,0,0,0,0,-1.914,-1.9119,-1.9078,-1.9062,-1.9049,-1.9014,-1.8999,-1.8979,-1.895,-1.8938,-1.891,-1.8882,-1.8858,-1.8842,-1.8817,-1.8798,-1.8788,-1.8792,-1.8794,-1.8796,-1.8795,-1.8783,-1.8784,-1.8772,-1.8772,-1.8772,0,0,-1.915,-1.9121,-1.9109,-1.9068,-1.9045,-1.9024,-1.9004,-1.8983,-1.8967,-1.8935,-1.891,-1.8889,-1.8855,-1.8833,-1.8822,-1.8815,-1.8796,-1.8796,-1.8798,-1.8796,-1.8783,-1.8785,-1.8786,-1.8772,-1.8772,-1.8772,0,0,-1.9157,-1.9133,-1.9117,-1.9095,-1.906,-1.9037,-1.9033,-1.8994,-1.8978,-1.8953,-1.8929,-1.8909,-1.8868,-1.8845,-1.8828,-1.8828,-1.881,-1.8821,-1.8832,-1.8821,-1.8822,-1.8823,-1.8822,-1.8823,-1.8821,-1.8821,-1.8821,0,-1.9173,-1.914,-1.9111,-1.9091,-1.9074,-1.9045,-1.9029,-1.9008,-1.8967,-1.8956,-1.895,-1.8897,-1.8873,-1.8845,-1.8845,-1.8833,-1.8827,-1.8825,-1.8824,-1.8825,-1.8825,-1.8824,-1.8824,-1.8822,-1.8822,-1.8822,-1.8822,0,-1.9162,-1.914,-1.9132,-1.9094,-1.9075,-1.9058,-1.9025,-1.9011,-1.8993,-1.8971,-1.8945,-1.8915,-1.8884,-1.8876,-1.8858,-1.8846,-1.8843,-1.8831,-1.8819,-1.8828,-1.8827,-1.8826,-1.8824,-1.8824,-1.8823,-1.8823,0,0,-1.9187,-1.9134,-1.9131,-1.9114,-1.9074,-1.9056,-1.9038,-1.9008,-1.8995,-1.8969,-1.8952,-1.8918,-1.8907,-1.8888,-1.8868,-1.8858,-1.886,-1.8848,-1.8846,-1.885,-1.8845,-1.8853,-1.8853,-1.8849,-1.8849,-1.8849,-1.8847,0,-1.9188,-1.9152,-1.9126,-1.9101,-1.908,-1.9053,-1.9037,-1.9011,-1.899,-1.8969,-1.8946,-1.8922,-1.891,-1.8898,-1.8888,-1.8862,-1.8858,-1.8862,-1.8832,-1.8831,-1.884,-1.8852,-1.8861,-1.8861,-1.8846,-1.8846,-1.8846,0,-1.9183,-1.9158,-1.9131,-1.9094,-1.9085,-1.907,-1.9041,-1.9022,-1.8992,-1.8978,-1.8957,-1.8936,-1.8915,-1.8907,-1.8878,-1.8881,-1.8867,-1.8853,-1.8852,-1.8847,-1.8838,-1.8847,-1.886,-1.886,-1.8845,-1.8845,-1.8845,0,-1.9204,-1.9163,-1.9141,-1.9127,-1.9084,-1.9075,-1.9056,-1.9027,-1.901,-1.8985,-1.8974,-1.8947,-1.8931,-1.891,-1.8883,-1.888,-1.8856,-1.8846,-1.8843,-1.8844,-1.8838,-1.8839,-1.8849,-1.8832,-1.8832,-1.8832,-1.8832,0,-1.9206,-1.9191,-1.915,-1.9136,-1.9118,-1.9088,-1.9071,-1.905,-1.9025,-1.9007,-1.8982,-1.8966,-1.8931,-1.8911,-1.8889,-1.8868,-1.8862,-1.8849,-1.8843,-1.885,-1.8852,-1.884,-1.8839,-1.8831,-1.8831,-1.8831,-1.8831,0,-1.9225,-1.9197,-1.9172,-1.9134,-1.9124,-1.9112,-1.9079,-1.9065,-1.9043,-1.9021,-1.9014,-1.898,-1.8955,-1.8926,-1.8891,-1.8877,-1.8857,-1.8849,-1.8867,-1.8863,-1.8862,-1.8863,-1.8864,-1.8863,-1.8848,-1.8848,-1.8848,0,-1.9228,-1.9216,-1.9176,-1.9163,-1.9145,-1.9124,-1.9107,-1.9078,-1.9062,-1.9028,-1.9018,-1.8991,-1.8968,-1.8929,-1.8901,-1.8875,-1.8865,-1.8868,-1.8861,-1.8869,-1.8864,-1.8865,-1.8864,-1.8869,-1.887,-1.887,-1.887,0,-1.9237,-1.9224,-1.9201,-1.9174,-1.9155,-1.9132,-1.9108,-1.9099,-1.9065,-1.9048,-1.9022,-1.9004,-1.8969,-1.8943,-1.8913,-1.8894,-1.8876,-1.8873,-1.8871,-1.8877,-1.8888,-1.8881,-1.8871,-1.8872,-1.8872,-1.8872,-1.8872,-1.8872,-1.9247,-1.9235,-1.9205,-1.9181,-1.916,-1.9138,-1.9123,-1.91,-1.9078,-1.9048,-1.9032,-1.9007,-1.8978,-1.8936,-1.8918,-1.8898,-1.8892,-1.8889,-1.8888,-1.8887,-1.8889,-1.8892,-1.8892,-1.8892,-1.8892,-1.8892,-1.8892,0,-1.9254,-1.9234,-1.9212,-1.9179,-1.916,-1.9146,-1.9119,-1.9104,-1.9082,-1.9057,-1.9035,-1.9006,-1.8981,-1.8951,-1.8924,-1.8913,-1.8905,-1.8907,-1.8907,-1.8903,-1.8896,-1.89,-1.8915,-1.8915,-1.8915,-1.8915,-1.8915,-1.8915,-1.9255,-1.9233,-1.9217,-1.9184,-1.9164,-1.9139,-1.9125,-1.9105,-1.9085,-1.9054,-1.9033,-1.9014,-1.8987,-1.8958,-1.8934,-1.8926,-1.8917,-1.8922,-1.8911,-1.8905,-1.8903,-1.8901,-1.8905,-1.892,-1.892,-1.8919,-1.8919,-1.8919]},{"header":{"parameterUnit":"m.s-1","parameterCategory":1,"la1":30.2991,"la2":30.254,"lo1":-89.0895,"lo2":-89.0444,"dy":0.0017,"dx":0.0017,"nx":28,"ny":28,"refTime":"2025-04-30T21:00:00:Z","depth":0,"parameterNumber":3,"parameterNumberName":"V-component_of_WINDS"},"data":[0,0,0,0,0,0,0,0,0,0,0,0,0,0,0,0,0,0,0,0,0,0,0,0,0,0,0,0,0,0,0,0,0,0,0,0,0,0,0,0,0,0,0,0,0,0,0,0,0,0,0,0,0,0,0,0,0,0,6.9863,6.9863,0,6.9842,6.9842,6.9841,6.9778,6.9777,6.9775,6.9774,6.9752,6.9753,6.9754,0,0,0,0,0,0,0,0,0,0,0,0,0,6.985,6.9851,6.9863,6.9863,6.9863,6.9842,6.9842,6.9841,6.9778,6.9777,6.9775,6.9773,6.9752,6.9753,6.9754,0,0,0,0,0,0,0,0,0,0,0,0,0,6.9845,6.9851,6.9863,6.9829,6.9825,6.9842,6.9842,6.9841,6.9779,6.9776,6.9774,6.9772,6.9752,6.9753,6.9754,6.9803,0,0,6.9757,6.9758,0,0,0,0,0,0,0,0,6.9846,6.9846,6.9834,6.9831,6.9827,6.981,6.9829,6.9828,6.9779,6.9796,6.9774,6.9771,6.9773,6.9773,6.9773,6.9802,6.9801,6.9757,6.9758,6.9759,6.9759,0,0,0,0,0,0,0,6.9846,6.9846,6.9855,6.9834,6.983,6.9815,6.9812,6.9829,6.9797,6.9795,6.979,6.9788,6.9771,6.9772,6.9772,6.98,6.9757,6.9758,6.9759,6.9759,6.9869,6.9871,0,0,0,0,0,0,6.9851,6.9847,6.9855,6.9854,6.9831,6.9817,6.9813,6.9818,6.9796,6.9791,6.979,6.9786,6.9772,6.9771,6.9771,6.9827,6.9759,6.976,6.976,6.9866,6.9869,6.9871,0,0,0,0,0,0,6.9851,6.9853,6.9856,6.9849,6.9849,6.9819,6.9825,6.9819,6.982,6.9793,6.9787,6.9797,6.977,6.977,6.9795,6.9825,6.976,6.9761,6.9864,6.9867,6.987,6.9938,0,0,0,0,0,0,6.9851,6.9853,6.987,6.985,6.9849,6.9881,6.9827,6.982,6.9822,6.9815,6.9798,6.9793,6.9768,6.9794,6.9797,6.9825,6.9762,6.9861,6.9865,6.9869,6.9933,6.9944,6.9953,0,0,0,0,0,6.9851,6.989,6.9872,6.9873,6.9871,6.9882,6.9882,6.9852,6.9824,6.9842,6.9825,6.9794,6.9822,6.9797,6.9799,6.9829,6.9859,6.9864,6.9869,6.9929,6.9942,6.9952,0,0,0,0,0,0,6.9914,6.9887,6.9866,6.99,6.9894,6.9872,6.9893,6.9866,6.9868,6.9862,6.9826,6.9822,6.9853,6.9844,6.9817,6.9876,6.9835,6.9841,6.988,6.9892,6.9901,6.9902,6.9763,0,0,0,0,0,6.9933,6.9944,6.992,6.9952,6.995,6.9923,6.9926,6.9904,6.9897,6.9894,6.9879,6.9873,6.988,6.9886,6.9891,6.9932,6.9928,6.9954,6.9964,6.9972,6.9977,6.9998,7.001,6.9888,6.9888,6.9888,0,0,6.997,6.9956,6.9966,6.9965,6.9957,6.997,6.9921,6.9936,6.9946,6.9896,6.9919,6.9909,6.99,6.9933,6.9948,6.9927,7.001,6.9978,6.9985,6.9985,7.0005,7.0016,7.0027,6.9891,6.9891,6.989,0,0,7.0044,7.0035,7.0061,7.0056,7.0045,7.0027,7.0034,7.0016,7.0007,7.003,6.9993,7.0004,7.0018,7.0013,7.0012,7.0088,7.0059,7.0091,7.014,7.0162,7.0171,7.018,7.0206,7.0216,7.0096,7.0096,7.0096,0,7.0091,7.0109,7.0078,7.0097,7.0098,7.0054,7.0081,7.0077,7.0069,7.0071,7.0048,7.0065,7.0056,7.0088,7.0107,7.0108,7.0115,7.0092,7.0173,7.0181,7.0188,7.0213,7.0223,7.01,7.01,7.0099,7.0099,0,7.0168,7.0182,7.0204,7.0198,7.0202,7.0225,7.0197,7.0205,7.0184,7.0168,7.0193,7.0181,7.0183,7.019,7.0169,7.022,7.0207,7.0179,7.0137,7.0204,7.0227,7.0236,7.0106,7.0104,7.0103,7.0102,0,0,7.0279,7.0258,7.0266,7.0264,7.0251,7.026,7.0282,7.0285,7.0292,7.0289,7.0306,7.032,7.0294,7.0294,7.0272,7.0292,7.0352,7.0261,7.026,7.0278,7.0408,7.0428,7.044,7.0334,7.0335,7.0337,7.0408,0,7.0349,7.0384,7.0358,7.0397,7.0409,7.037,7.0388,7.0383,7.037,7.0379,7.0364,7.0374,7.0339,7.0339,7.0356,7.0341,7.0378,7.0336,7.0349,7.035,7.0351,7.0452,7.0473,7.0541,7.0417,7.0419,7.042,0,7.0435,7.0436,7.0477,7.0463,7.0467,7.0484,7.0485,7.0494,7.0488,7.0477,7.0478,7.0451,7.0472,7.0433,7.0461,7.0433,7.0437,7.0431,7.0433,7.0432,7.0388,7.0453,7.0562,7.0572,7.0434,7.0433,7.0432,0,7.0512,7.0524,7.055,7.0549,7.0533,7.0546,7.054,7.0532,7.0535,7.0537,7.0539,7.0543,7.0545,7.0549,7.0525,7.0499,7.0557,7.0515,7.0548,7.0549,7.0561,7.056,7.0672,7.0565,7.0565,7.0565,7.0565,0,7.0592,7.0618,7.0584,7.06,7.0629,7.06,7.0629,7.0619,7.0613,7.0626,7.0593,7.0606,7.0574,7.0585,7.0567,7.0593,7.0594,7.0586,7.058,7.0588,7.0589,7.059,7.0584,7.0568,7.0567,7.0567,7.0566,0,7.0681,7.066,7.0686,7.0669,7.0666,7.0688,7.0674,7.0688,7.0674,7.0692,7.0694,7.0671,7.0682,7.0659,7.0667,7.0654,7.0691,7.0679,7.0694,7.0689,7.0724,7.0721,7.0838,7.0852,7.0738,7.0739,7.074,0,7.0733,7.0753,7.0739,7.0746,7.0742,7.0753,7.0758,7.073,7.0736,7.0731,7.0746,7.0755,7.0759,7.0779,7.0763,7.0769,7.0756,7.0797,7.0757,7.0764,7.0756,7.0755,7.0757,7.0805,7.0807,7.0808,7.0809,0,7.0828,7.0817,7.0824,7.0828,7.0834,7.0836,7.0836,7.0844,7.0814,7.0823,7.0834,7.0838,7.0846,7.0855,7.0858,7.0852,7.0826,7.0822,7.083,7.0837,7.0845,7.0841,7.0715,7.0819,7.0818,7.0817,7.0816,7.0816,7.09,7.0916,7.0909,7.0918,7.0915,7.0916,7.0929,7.0917,7.0926,7.093,7.0914,7.0929,7.0923,7.0924,7.0922,7.0933,7.0915,7.0926,7.0929,7.0932,7.0937,7.0844,7.0934,7.0933,7.0933,7.0933,7.0933,0,7.0992,7.0986,7.0996,7.0996,7.1004,7.098,7.0979,7.0987,7.1001,7.0998,7.1004,7.1017,7.1026,7.1012,7.1018,7.1031,7.1019,7.1033,7.1032,7.1031,7.0954,7.0946,7.1043,7.1043,7.1043,7.1043,7.1043,7.1043,7.1041,7.1067,7.1056,7.108,7.1074,7.1088,7.109,7.1091,7.1088,7.1105,7.1112,7.1103,7.1096,7.1102,7.111,7.1105,7.1109,7.1128,7.1119,7.1047,7.1036,7.1026,7.1018,7.1129,7.1129,7.1195,7.1196,7.1196]}]]